Погода в Филиппсоле

Россия / Республика Марий Эл     56°17′02″N   48°30′22″E
темп.,
°C
ветер,
м/с
пор.,
м/с
влажн.,
%
обл.,
%
осадки,
мм/ч
давл.,
гПа
погр.,
м
5 августа, чт
чт500:00+15зсз249419 0.0 101388
03:00+14зсз23942 0.0 101350
06:00+16сз378764 0.0 1015231
09:00+20ссз466580 0.0 1015686
12:00+23ссз4444100 0.0 10152289
15:00+21ссз1459100 0.0 1016357
18:00+21сз27542 0.0 1016322
21:00+15с22720 0.0 101615
6 августа, пт
пт600:00+13с127427 0.0 101711
03:00+12ссв1271100 0.0 101813
06:00+14ссв126754 0.0 101874
09:00+21ссз22456 0.0 1018694
12:00+24с223477 0.0 10181965
15:00+24с223483 0.0 10171912
18:00+21ссв2455100 0.0 1017108
21:00+17всв2559100 0.0 101794
7 августа, сб
сб700:00+16в2656100 0.0 1018152
03:00+15всв3866100 0.1 1018219
06:00+13в3895100 3.9 1019247
09:00+13в3894100 4.8 1019254
12:00+16в3583100 0.0 1019343
15:00+15в378360 0.1 1019258
18:00+16в378289 0.0 1019294
21:00+14в389285 0.0 1019199
8 августа, вс
вс800:00+13в26915 0.0 1019120
03:00+14вюв258099 0.0 1020131
06:00+15вюв3776100 0.0 1020193
09:00+20вюв365969 0.0 1020448
12:00+20вюв236487 0.0 101973
15:00+25юв2348100 0.0 1019579
18:00+22в376397 0.0 1018131
21:00+19в3970100 0.0 1019159
9 августа, пн
пн900:00+18вюв31168100 0.0 1019247
03:00+18вюв3965100 0.0 1019209
06:00+18вюв2768100 0.0 1019177
09:00+21юв3660100 0.0 1018300
12:00+21ююв136699 0.0 101865
15:00+26ююз244766 0.0 1018515
18:00+25ю116090 0.0 101711
21:00+19ю227418 0.4 101711